Location: Hungerford
(51.4167°N, 1.5167°W)
Time: 08:47:41
(UTC+00:00)

Cosmos 1048 Rocket - Pass Details

Date: 21 January 2021
Orbit: 744 x 791 km, 74.0° (Epoch: 24 February)

Event Time Altitude Azimuth Distance (km) Brightness Sun altitude
Rises 21:16:51 0° 329° (NNW) 3,197 7.8 -42.6°
Reaches altitude 10° 21:19:24 10° 320° (NW) 2,269 7.0 -43.0°
Enters shadow 21:19:30 11° 319° (NW) 2,234 6.9 -43.0°
